Location: Newark
(12.4436°N, 0.6167°W)
Time: 17:06:47
(UTC+00:00)

Vanguard 2 - Pass Details

Date: 11 December 2019
Orbit: 553 x 2938 km, 32.9° (Epoch: 28 January)

Event Time Altitude Azimuth Distance (km) Brightness Sun altitude
Rises 21:41:32 0° 222° (SW) 4,070 11.7 -56.4°
Reaches altitude 10° 21:43:56 10° 217° (SW) 3,360 11.1 -57.0°
Enters shadow 21:44:10 11° 217° (SW) 3,294 11.0 -57.0°
Maximum altitude 21:52:42 58° 140° (SE) 2,127 - -58.9°
Drops below altitude 10° 22:07:00 10° 66° (ENE) 5,309 - -62.1°
Sets 22:11:50 0° 63° (ENE) 6,553 - -63.1°
